Hourly Weather Kivshovata

Today, 25 July, Sunday

Time Temperature Precipitation Wind Pressure Humidity
00:00 +22°C° 0 mm 1 mps 743 mmHg 56%
01:00 +22°C° 0 mm 1 mps 743 mmHg 56%
02:00 +22°C° 0 mm 1 mps 743 mmHg 57%
03:00 +22°C° 0 mm 1 mps 743 mmHg 58%
04:00 +21°C° 0 mm 1 mps 743 mmHg 59%
05:00 +19°C° 0 mm 0 mps 743 mmHg 60%
06:00 +20°C° 0 mm 0 mps 743 mmHg 61%
07:00 +21°C° 0 mm 0 mps 744 mmHg 61%
08:00 +21°C° 0 mm 0 mps 744 mmHg 63%
09:00 +22°C° 0 mm 0 mps 744 mmHg 58%
10:00 +25°C° 0 mm 1 mps 744 mmHg 53%
11:00 +26°C° 0 mm 1 mps 744 mmHg 48%
12:00 +27°C° 0 mm 1 mps 744 mmHg 45%
13:00 +27°C° 0 mm 1 mps 744 mmHg 43%
14:00 +28°C° 0 mm 1 mps 744 mmHg 40%
15:00 +28°C° 0 mm 1 mps 744 mmHg 42%
16:00 +28°C° 0 mm 1 mps 744 mmHg 44%
17:00 +28°C° 0 mm 1 mps 744 mmHg 46%
18:00 +26°C° 0 mm 1 mps 744 mmHg 50%
19:00 +24°C° 0 mm 1 mps 744 mmHg 53%
20:00 +23°C° 0 mm 1 mps 744 mmHg 57%
21:00 +22°C° 0 mm 1 mps 744 mmHg 60%
22:00 +21°C° 0 mm 2 mps 745 mmHg 62%
23:00 +20°C° 0 mm 2 mps 745 mmHg 65%

Tomorrow, 26 July, Monday

Time Temperature Precipitation Wind Pressure Humidity
00:00 +20°C° 0 mm 2 mps 745 mmHg 67%
01:00 +19°C° 0 mm 2 mps 745 mmHg 68%
02:00 +19°C° 0 mm 2 mps 745 mmHg 70%
03:00 +19°C° 0 mm 2 mps 745 mmHg 71%
04:00 +19°C° 0 mm 2 mps 745 mmHg 72%
05:00 +19°C° 0 mm 3 mps 745 mmHg 73%
06:00 +20°C° 0 mm 3 mps 745 mmHg 70%
07:00 +22°C° 0 mm 3 mps 745 mmHg 67%
08:00 +25°C° 0 mm 3 mps 745 mmHg 64%
09:00 +26°C° 0 mm 3 mps 745 mmHg 59%
10:00 +27°C° 0 mm 3 mps 745 mmHg 54%
11:00 +29°C° 0 mm 4 mps 745 mmHg 49%
12:00 +29°C° 0 mm 3 mps 745 mmHg 49%
13:00 +29°C° 0 mm 3 mps 745 mmHg 49%
14:00 +29°C° 0 mm 3 mps 745 mmHg 49%
15:00 +28°C° 0.1 mm 3 mps 745 mmHg 53%
16:00 +27°C° 0.1 mm 3 mps 745 mmHg 57%
17:00 +26°C° 0.1 mm 3 mps 745 mmHg 61%
18:00 +25°C° 0 mm 3 mps 745 mmHg 63%
19:00 +24°C° 0 mm 3 mps 745 mmHg 65%
20:00 +22°C° 0 mm 3 mps 745 mmHg 68%
21:00 +21°C° 0 mm 3 mps 745 mmHg 68%
22:00 +21°C° 0 mm 3 mps 745 mmHg 68%
23:00 +20°C° 0 mm 3 mps 745 mmHg 69%

Day after tomorrow, 27 July, Tuesday

Time Temperature Precipitation Wind Pressure Humidity
00:00 +20°C° 0 mm 3 mps 745 mmHg 67%
01:00 +20°C° 0 mm 2 mps 745 mmHg 66%
02:00 +20°C° 0 mm 2 mps 745 mmHg 64%
03:00 +20°C° 0 mm 2 mps 745 mmHg 63%
04:00 +20°C° 0 mm 2 mps 745 mmHg 62%
05:00 +20°C° 0 mm 3 mps 744 mmHg 61%
06:00 +22°C° 0 mm 3 mps 744 mmHg 60%
07:00 +23°C° 0 mm 4 mps 745 mmHg 58%
08:00 +26°C° 0 mm 4 mps 745 mmHg 57%
09:00 +27°C° 0 mm 5 mps 745 mmHg 53%
10:00 +29°C° 0 mm 5 mps 745 mmHg 49%
11:00 +30°C° 0 mm 5 mps 745 mmHg 45%
12:00 +32°C° 0 mm 5 mps 744 mmHg 44%
13:00 +32°C° 0 mm 5 mps 744 mmHg 42%
14:00 +33°C° 0 mm 5 mps 744 mmHg 40%
15:00 +32°C° 0 mm 4 mps 744 mmHg 45%
16:00 +30°C° 0 mm 4 mps 744 mmHg 49%
17:00 +30°C° 0 mm 3 mps 743 mmHg 53%
18:00 +28°C° 0 mm 3 mps 743 mmHg 57%
19:00 +26°C° 0 mm 2 mps 743 mmHg 61%
20:00 +24°C° 0 mm 2 mps 743 mmHg 65%
21:00 +23°C° 0.1 mm 2 mps 743 mmHg 65%
22:00 +23°C° 0.1 mm 2 mps 743 mmHg 66%
23:00 +21°C° 0.1 mm 2 mps 743 mmHg 67%

28 July, Wednesday

Time Temperature Precipitation Wind Pressure Humidity
00:00 +21°C° 0.2 mm 3 mps 742 mmHg 71%
01:00 +20°C° 0.2 mm 3 mps 742 mmHg 74%
02:00 +20°C° 0.2 mm 3 mps 742 mmHg 78%
03:00 +19°C° 0.2 mm 3 mps 742 mmHg 80%
04:00 +19°C° 0.2 mm 3 mps 741 mmHg 83%
05:00 +19°C° 0.2 mm 3 mps 741 mmHg 85%
06:00 +21°C° 0 mm 3 mps 741 mmHg 80%
07:00 +24°C° 0 mm 3 mps 741 mmHg 74%
08:00 +26°C° 0 mm 4 mps 741 mmHg 68%
09:00 +27°C° 0 mm 4 mps 741 mmHg 63%
10:00 +29°C° 0 mm 4 mps 741 mmHg 58%
11:00 +30°C° 0 mm 4 mps 741 mmHg 53%
12:00 +32°C° 0 mm 4 mps 741 mmHg 52%
13:00 +33°C° 0 mm 4 mps 741 mmHg 50%
14:00 +33°C° 0 mm 5 mps 740 mmHg 48%
15:00 +33°C° 0 mm 4 mps 740 mmHg 51%
16:00 +32°C° 0 mm 4 mps 740 mmHg 54%
17:00 +32°C° 0 mm 4 mps 740 mmHg 56%
18:00 +29°C° 0 mm 3 mps 740 mmHg 60%
19:00 +28°C° 0 mm 3 mps 740 mmHg 64%
20:00 +26°C° 0 mm 2 mps 740 mmHg 68%
21:00 +25°C° 0 mm 2 mps 740 mmHg 70%
22:00 +24°C° 0 mm 2 mps 740 mmHg 72%
23:00 +23°C° 0 mm 1 mps 740 mmHg 73%

29 July, Thursday

Time Temperature Precipitation Wind Pressure Humidity
00:00 +23°C° 0 mm 1 mps 740 mmHg 74%
01:00 +23°C° 0 mm 1 mps 740 mmHg 74%
02:00 +22°C° 0 mm 1 mps 740 mmHg 75%
03:00 +22°C° 0 mm 1 mps 740 mmHg 75%
04:00 +22°C° 0 mm 1 mps 740 mmHg 76%
05:00 +22°C° 0 mm 1 mps 740 mmHg 76%
06:00 +23°C° 0 mm 1 mps 740 mmHg 71%
07:00 +25°C° 0 mm 1 mps 740 mmHg 66%
08:00 +25°C° 0 mm 0 mps 740 mmHg 62%
09:00 +28°C° 0 mm 1 mps 740 mmHg 57%
10:00 +30°C° 0 mm 1 mps 740 mmHg 53%
11:00 +31°C° 0 mm 1 mps 740 mmHg 49%
12:00 +31°C° 0 mm 1 mps 740 mmHg 47%
13:00 +32°C° 0 mm 1 mps 740 mmHg 46%
14:00 +33°C° 0 mm 1 mps 740 mmHg 44%
15:00 +33°C° 0 mm 1 mps 739 mmHg 45%
16:00 +32°C° 0 mm 1 mps 739 mmHg 46%
17:00 +32°C° 0 mm 1 mps 739 mmHg 47%
18:00 +30°C° 0.4 mm 1 mps 739 mmHg 55%
19:00 +28°C° 0.4 mm 2 mps 738 mmHg 63%
20:00 +26°C° 0.4 mm 3 mps 738 mmHg 70%
21:00 +24°C° 1.5 mm 3 mps 738 mmHg 76%
22:00 +22°C° 1.5 mm 3 mps 738 mmHg 81%
23:00 +21°C° 1.5 mm 3 mps 738 mmHg 86%

30 July, Friday

Time Temperature Precipitation Wind Pressure Humidity
00:00 +21°C° 1.6 mm 3 mps 738 mmHg 89%
01:00 +21°C° 1.6 mm 3 mps 738 mmHg 92%
02:00 +20°C° 1.6 mm 3 mps 738 mmHg 94%
03:00 +20°C° 0.6 mm 2 mps 738 mmHg 95%
04:00 +20°C° 0.6 mm 2 mps 738 mmHg 95%
05:00 +21°C° 0.6 mm 1 mps 738 mmHg 95%
06:00 +22°C° 0.6 mm 1 mps 739 mmHg 91%
07:00 +23°C° 0.6 mm 1 mps 739 mmHg 87%
08:00 +24°C° 0.6 mm 1 mps 739 mmHg 83%
09:00 +26°C° 0 mm 1 mps 739 mmHg 76%
10:00 +27°C° 0 mm 1 mps 739 mmHg 70%
11:00 +29°C° 0 mm 1 mps 739 mmHg 63%
12:00 +29°C° 0 mm 2 mps 739 mmHg 60%
13:00 +30°C° 0 mm 2 mps 739 mmHg 57%
14:00 +31°C° 0 mm 2 mps 738 mmHg 55%
15:00 +30°C° 0.2 mm 2 mps 738 mmHg 58%
16:00 +30°C° 0.2 mm 2 mps 738 mmHg 61%
17:00 +29°C° 0.2 mm 3 mps 738 mmHg 65%
18:00 +28°C° 0.4 mm 3 mps 738 mmHg 71%
19:00 +26°C° 0.4 mm 3 mps 738 mmHg 78%
20:00 +24°C° 0.4 mm 2 mps 738 mmHg 85%
21:00 +24°C° 0.1 mm 2 mps 738 mmHg 87%
22:00 +23°C° 0.1 mm 2 mps 738 mmHg 89%
23:00 +23°C° 0.1 mm 1 mps 738 mmHg 90%
Show more